STARLINK-2224, 48573

Orbit data source: Space-Track

STARLINK-2224, 48573 is a payload satellite owned by SpaceX/Seattle (US) in LEO that was launched on Sat, 15 May 2021 UTC via an FALCON 9 launch vehicle from the Air Force Eastern Test Range (AFETR). Payload-class satellites include a variety of spacecraft equipped with specific instruments for various scientific and technological missions. These include communications satellites like Starlink; space stations such as the ISS; scientific satellites like the Hubble; Earth observation satellites from companies like Planet Labs, Umbra, and HawkEye 360; GPS; miniature CubeSats for education and research; and military/defense satellites.

Loading next visibility...
Identifier
48573, 2021-041W
Orbit
LEO
Country
Flag of USUS
Related business
Manufacturer
SpaceX/Seattle
Mission
Operational Commercial Communications
Bus & Motor
STARLINK, Unknown motor
Mass
260 kg wet, ~248 kg dry
Launch date (UTC)
2021-05-15 (5 years ago)
Launch vehicle
FALCON 9
Launch site
Air Force Eastern Test Range (AFETR)
Object type
Payload
Rocket body
Debris
Shape & HBR
Box + 1 Pan, 10.1 m
Radar Cross Section
13.562 m², Large (>1 m²)

Expand to show TLE details & history
Last TLE update: 2 days ago

TLE from 2 days ago
0 STARLINK-2224
1 48573U 21041W   26170.97658051  .00001592  00000-0  63112-4 0  9996
2 48573  53.1590  11.5051 0001627 104.4077 255.7105 15.31673239280931
Epoch: 2026-06-19T23:26Z
TLE epoch observation values (Epoch: 2026-06-19T23:26:16.556Z)
Latitude
-0°
Longitude
111.73829°
Altitude
471.995 km
Speed
7.631 km/s
True Right ascension
00h 46m 01s
True Declination
0° 00' 00"
Sunlit
Object was in daylight at epoch
Visualization orbit readout
Latitude
Unknown
Longitude
Unknown
Altitude
Unknown
Speed
Unknown
Apparent Right ascension
Unknown
Apparent Declination
Unknown
Sunlit
N/A
Visualization observer readout
Local Sidereal Time
21:36:40
Azimuth
Unknown
Elevation
Unknown
Doppler factor
Unknown
Orbital elements
Apogee altitude
472.191 km
Perigee altitude
469.962 km
Semi-major axis
6,849.214 km
Eccentricity
0.00016
Inclination
53.159°
RAAN
11.5051°
Arg. of periapsis
104.4077°
True anomaly
255.69243°
Mean anomaly
255.7105°
Eccentric anomaly
255.70147°
Mean motion
3.82897 °/min
Orbital period
94.02 mins
BSTAR
0.000063112
Loading maneuver chart data...
Computing Atmospheric mass density...

Documentation

Showing up to 5 results
|